Location: Nag� el Ma?a??a
(24.0667°N, 32.8833°E)
Time: 17:05:00
(UTC+00:00)

Cosmos 1603 - Pass Details

Date: 25 September 2021
Orbit: 829 x 861 km, 71.0° (Epoch: 16 October)

Event Time Altitude Azimuth Distance (km) Brightness Sun altitude
Exits shadow 02:43:53 - 213° (SSW) 3,122 6.3 -13.2°
Reaches altitude 10° 02:45:47 10° 218° (SW) 2,427 5.7 -12.8°
Maximum altitude 02:51:05 45° 291° (WNW) 1,118 4.0 -11.6°
Drops below altitude 10° 02:56:26 10° 3° (N) 2,449 6.2 -10.4°
Sets 02:59:00 0° 10° (N) 3,390 7.0 -9.8°
